Find Starlink 5935

NORAD ID: 56453 Int'l Des: 2023-064 Owner: SPXS Country: US Constellation: starlink operational
LEOCIRCULAR

当前视图

正在加载3D地球...

About Starlink 5935

Starlink 5935 (NORAD 56453) is a starlink constellation satellite (v1.5) launched May 10, 2023 by SPXS of US. It operates in LEO, CIRCULAR orbit with a mass of 305.00 kg.

即将过境

Passes for default location (London). Set your location on the main map for personalized predictions.

高度历史

Loading altitude history...

两行轨道根数

1 56453U 23064F 26263.43230000 .00001600 00000-0 14187-3 0 9990
2 56453 70.0002 13.5613 0002927 271.3950 88.6874 14.98324524184411
Epoch: Sep 20, 2026 • Age: 16 hours

当前状态

高度 585.6 km
远地点 / 近地点 N/A
速度 7.57 km/s
星下点 70.02°N, 65.07°E
发射日期 May 10, 2023
运行时间 3.3 years
类型 internet

技术详情

分类 Payload
质量 305.00 kg
干质量 290.00 kg
长度 0.20 m
跨度 9.00 m
形状 ? Box + pan
制造商 SPXS
平台类型 Starlink
阶段状态 In Orbit
所有者/国家 SPXS/US

Most Searched